This demonstration page uses our WeatherBlox Daily Observations layout. Learn more.

Left ArrowRight Arrow

39.51506, -84.39828

Hourly Observations for October 18, 2015

Temp ( °F °C ) Dew Point ( °F °C ) Humidity (%) Winds ( mph kmh ) Pressure ( in mb ) Visibility ( mi km ) Precip ( " mm )
12:15 am 00:15 Clear 37 2.6 26 -3.3 65 65 NNE 3 6 30.48 1032 10 16 N/A
12:35 am 00:35 Clear 34 1.2 28 -2.5 77 77 N N/A 30.48 1032 10 16 N/A
12:55 am 00:55 Clear 34 1.2 28 -2.5 77 77 N N/A 30.48 1032 10 16 N/A
1:15 am 01:15 Clear 34 1.2 30 -1.3 84 84 N N/A 30.48 1032 10 16 N/A
1:35 am 01:35 Clear 33 0.6 29 -1.7 85 85 N N/A 30.45 1031 10 16 N/A
1:55 am 01:55 Clear 30 -0.9 26 -3.1 85 85 N N/A 30.48 1032 10 16 N/A
2:15 am 02:15 Clear 29 -1.5 26 -3.5 86 86 N N/A 30.48 1032 10 16 N/A
2:35 am 02:35 Clear 31 -0.7 27 -2.6 87 87 N N/A 30.48 1032 10 16 N/A
2:55 am 02:55 Clear 30 -1.1 26 -3.1 86 86 N N/A 30.48 1032 10 16 N/A
3:15 am 03:15 Clear 31 -0.8 27 -2.6 88 88 N N/A 30.48 1032 10 16 N/A
3:35 am 03:35 Clear 30 -1.3 26 -3.1 88 88 N N/A 30.48 1032 10 16 N/A
3:55 am 03:55 Clear 29 -1.5 26 -3.2 88 88 NNE 3 6 30.48 1032 10 16 N/A
4:15 am 04:15 Clear 29 -1.5 26 -3.3 88 88 N N/A 30.48 1032 10 16 N/A
4:35 am 04:35 Clear 29 -1.5 26 -3.3 88 88 N N/A 30.48 1032 10 16 N/A
4:55 am 04:55 Clear 29 -1.5 26 -3.3 88 88 N N/A 30.48 1032 10 16 N/A
5:15 am 05:15 Clear 29 -1.5 26 -3.1 89 89 N N/A 30.48 1032 10 16 N/A
5:35 am 05:35 Clear 29 -1.5 26 -3.1 89 89 N N/A 30.48 1032 10 16 N/A
5:55 am 05:55 Clear 29 -1.5 27 -3 90 90 N N/A 30.48 1032 10 16 N/A
6:15 am 06:15 Clear 29 -1.5 27 -3 90 90 N N/A 30.50 1033 10 16 N/A
6:35 am 06:35 Clear 29 -1.5 27 -3 90 90 N N/A 30.50 1033 10 16 N/A
6:55 am 06:55 Clear 29 -1.5 27 -3 90 90 N N/A 30.50 1033 7 11 N/A
7:15 am 07:15 Clear 29 -1.5 27 -3 90 90 N N/A 30.50 1033 7 11 N/A
7:35 am 07:35 Clear 29 -1.5 27 -3 90 90 N N/A 30.50 1033 7 11 N/A
7:55 am 07:55 Mostly Cloudy with Mist and Fog 29 -1.5 27 -3 90 90 N N/A 30.50 1033 1 1 N/A
8:15 am 08:15 Sunny with Mist and Fog 29 -1.5 27 -3 90 90 N N/A 30.53 1034 4 6 N/A
8:35 am 08:35 Sunny with Mist and Fog 29 -1.5 27 -3 90 90 SW 5 7 30.53 1034 4 6 N/A
8:55 am 08:55 Sunny 33 0.5 30 -0.9 90 90 N N/A 30.53 1034 10 16 N/A
9:15 am 09:15 Sunny 34 1.2 32 -0.2 91 91 N N/A 30.53 1034 10 16 N/A
9:35 am 09:35 Sunny 37 2.6 32 undefined 83 83 SSW 3 6 30.53 1034 10 16 N/A
9:55 am 09:55 Sunny 39 4 32 -0.1 75 75 SSW 3 6 30.53 1034 10 16 N/A
10:15 am 10:15 Sunny 41 4.9 31 -0.4 69 69 SW 5 7 30.56 1035 10 16 N/A
10:35 am 10:35 Sunny 44 6.7 30 -1.1 58 58 SW 5 7 30.56 1035 10 16 N/A
10:55 am 10:55 Sunny 49 9.6 30 -1.2 47 47 WSW 5 7 30.50 1033 10 16 N/A
11:15 am 11:15 Sunny 49 9.6 29 -1.7 46 46 WSW 3 6 30.53 1034 10 16 N/A
11:35 am 11:35 Sunny 51 10.3 29 -1.9 43 43 SSE 7 11 30.53 1034 10 16 N/A
11:55 am 11:55 Sunny 55 12.5 30 -1.2 39 39 SSE 5 7 30.50 1033 10 16 N/A
12:15 pm 12:15 Sunny 55 12.5 26 -3.3 33 33 NW 9 15 30.50 1033 10 16 N/A
12:35 pm 12:35 Partly Cloudy 55 12.7 24 -4.6 30 30 N 9 15 30.50 1033 10 16 N/A
12:55 pm 12:55 Partly Cloudy 57 13.8 23 -5.2 27 27 N 9 15 30.50 1033 10 16 N/A
1:15 pm 13:15 Partly Cloudy 57 13.7 24 -4.5 28 28 N 7 11 30.50 1033 10 16 N/A
1:35 pm 13:35 Sunny 57 13.8 23 -5.2 27 27 N 9 15 30.50 1033 10 16 N/A
1:55 pm 13:55 Partly Cloudy 56 13.2 21 -6.3 25 25 NNE 7 11 30.48 1032 10 16 N/A
2:15 pm 14:15 Partly Cloudy 57 13.8 21 -6.3 24 24 NNW 6 9 30.48 1032 10 16 N/A
2:40 pm 14:40 Partly Cloudy 57 14 19 -7.3 22 22 W 7 11 30.45 1031 10 16 N/A
2:55 pm 14:55 Partly Cloudy 59 15.2 19 -7 21 21 NNW 12 19 30.45 1031 10 16 N/A
3:15 pm 15:15 Sunny 59 15.1 20 -6.8 22 22 NW 12 19 30.45 1031 10 16 N/A
3:35 pm 15:35 Sunny 60 15.3 20 -6.5 22 22 WNW 6 9 30.45 1031 10 16 N/A
3:55 pm 15:55 Sunny 60 15.3 19 -7.1 21 21 N 8 13 30.45 1031 10 16 N/A
4:15 pm 16:15 Sunny 60 15.3 19 -7.3 21 21 N 7 11 30.45 1031 10 16 N/A
4:35 pm 16:35 Sunny 60 15.3 19 -7.4 20 20 NW 3 6 30.45 1031 10 16 N/A
4:55 pm 16:55 Sunny 60 15.3 19 -7.3 21 21 NW 3 6 30.45 1031 10 16 N/A
5:15 pm 17:15 Sunny 60 15.3 19 -7.1 21 21 N 7 11 30.42 1030 10 16 N/A
5:35 pm 17:35 Sunny 60 15.3 19 -7.2 21 21 NNW 6 9 30.42 1030 10 16 N/A
5:55 pm 17:55 Sunny 58 14.7 19 -7.5 21 21 NW 6 9 30.42 1030 10 16 N/A
6:15 pm 18:15 Sunny 57 13.8 19 -7.4 22 22 N N/A 30.42 1030 10 16 N/A
6:35 pm 18:35 Sunny 57 13.8 19 -7 23 23 N 3 6 30.42 1030 10 16 N/A
6:55 pm 18:55 Clear 55 12.5 27 -2.8 35 35 N N/A 30.42 1030 10 16 N/A
7:15 pm 19:15 Clear 49 9.2 32 undefined 53 53 N N/A 30.42 1030 10 16 N/A
7:35 pm 19:35 Clear 49 9.6 31 -0.5 50 50 N N/A 30.42 1030 10 16 N/A
7:55 pm 19:55 Clear 47 8.2 30 -1.3 52 52 N 3 6 30.42 1030 10 16 N/A
8:15 pm 20:15 Clear 45 7.4 29 -1.5 54 54 N 3 6 30.48 1032 10 16 N/A
8:35 pm 20:35 Clear 42 5.5 30 -1.2 62 62 N N/A 30.48 1032 10 16 N/A
8:55 pm 20:55 Clear 40 4.4 29 -1.4 66 66 N N/A 30.48 1032 10 16 N/A
9:15 pm 21:15 Clear 40 4.7 30 -1 67 67 N N/A 30.45 1031 10 16 N/A
9:35 pm 21:35 Clear 40 4.2 30 -1.2 68 68 N N/A 30.45 1031 10 16 N/A
9:55 pm 21:55 Clear 39 4 31 -0.7 72 72 N N/A 30.45 1031 10 16 N/A
10:15 pm 22:15 Clear 37 2.6 30 -1 77 77 N N/A 30.45 1031 10 16 N/A
10:35 pm 22:35 Clear 38 3.1 31 -0.7 76 76 N N/A 30.45 1031 10 16 N/A
10:55 pm 22:55 Clear 37 2.6 30 -0.9 78 78 N N/A 30.45 1031 10 16 N/A
11:15 pm 23:15 Clear 37 2.6 31 -0.5 80 80 N N/A 30.48 1032 10 16 N/A
11:35 pm 23:35 Clear 37 2.6 32 -0.1 83 83 N N/A 30.45 1031 10 16 N/A
11:55 pm 23:55 Clear 36 2.2 31 -0.6 82 82 N N/A 30.45 1031 10 16 N/A

Powered by AerisWeather